Weather in Ust-Altan

Russia / Irkutsk Oblast     53°31′27″N   103°37′14″E
temp.,
°C
wind,
m/s
gust,
m/s
humid.,
%
clouds,
%
prec.,
mm/h
press.,
hPa
HPBL,
m
7 march, sun
sun723:00−10se238532 0.0 102321
02:00−11se238359 0.0 102221
05:00−11se228388 0.0 101921
08:00−12se228255 0.0 102021
11:00−6sse248076 0.0 1017235
14:00−2se478480 0.0 1015371
17:000s258925 0.0 1013347
20:00−4se228862 0.0 101621
8 march, mon
mon823:00−5s1189100 0.0 101721
02:00−6ssw228799 0.0 102021
05:00−5nw249790 0.1 102284
08:00−7nw5107795 0.3 1026348
11:00−7nw4772100 0.0 1028762
14:00−6w236899 0.0 1027536
17:00−6ese01734 0.0 1026256
20:00−11ese22764 0.0 102721
9 march, tue
tue923:00−12ese33797 0.0 102525
02:00−12ese487815 0.0 1022144
05:00−11se388332 0.0 1019143
08:00−11se338527 0.0 101866
11:00−5sse258370 0.0 1017339
14:00−3nnw018185 0.0 1019283
17:00−2sw118589 0.0 101995
20:00−7sse118951 0.0 102321
10 march, wed
wed1023:00−8ssw11938 0.0 102621
02:00−9ne129648 0.2 102821
05:00−11ssw12878 0.0 102921
08:00−12ese228614 0.0 102921
11:00−6ese248114 0.0 1027252
14:00−2ese23838 0.0 1024390
17:00−1e23880 0.0 1023278
20:00−6e12899 0.0 102421
11 march, thu
thu1123:00−7se228820 0.0 102521
02:00−8se338810 0.0 102346
05:00−9se35860 0.0 102293
08:00−8se511860 0.0 1021223
11:00−2se714820 0.0 1018462
14:00+1sse714880 0.0 1014518
17:00+2se613860 0.0 1014422
20:00−3se348511 0.0 101751